This is the latest recevied weather packets stored in our database for station/object VE3TEJ. If no packets are shown the sender has not sent any weather packets the latest 10 day(s).
| Time | Temp. | Humidity | Pressure | Rain* | Wind** | Luminosity | Snow |
|---|---|---|---|---|---|---|---|
| 1777988949 | 12.78° C | 70% | 1002.2 hPa | 0 mm | - | - | - |
| 1777988647 | 13.33° C | 69% | 1002.1 hPa | 0 mm | - | - | - |
| 1777988349 | 12.78° C | 71% | 1002.5 hPa | 0 mm | - | - | - |
| 1777988047 | 12.22° C | 72% | 1002.4 hPa | 0 mm | - | - | - |
| 1777987749 | 11.67° C | 74% | 1002.6 hPa | 0 mm | - | - | - |
| 1777987448 | 11.67° C | 74% | 1002.4 hPa | 0 mm | - | - | - |
| 1777987148 | 11.11° C | 74% | 1002.3 hPa | 0 mm | - | - | - |
| 1777986847 | 10.56° C | 76% | 1002.2 hPa | 0 mm | - | - | - |
| 1777986547 | 10.56° C | 76% | 1002.3 hPa | 0 mm | - | - | - |
| 1777986249 | 10.56° C | 76% | 1002 hPa | 0 mm | - | - | - |
| 1777985948 | 11.11° C | 77% | 1002.3 hPa | 0 mm | - | - | - |
| 1777985648 | 11.11° C | 77% | 1002.2 hPa | 0 mm | - | - | - |
| 1777985347 | 11.11° C | 78% | 1002.3 hPa | 0 mm | - | - | - |
| 1777985047 | 10.56° C | 79% | 1002.5 hPa | 0 mm | - | - | - |
| 1777984749 | 10.56° C | 79% | 1002.2 hPa | 0 mm | - | - | - |
| 1777984448 | 11.11° C | 78% | 1002.2 hPa | 0 mm | - | - | - |
| 1777984148 | 11.11° C | 78% | 1002.1 hPa | 0 mm | - | - | - |
| 1777983847 | 11.67° C | 78% | 1002 hPa | 0 mm | - | - | - |
| 1777983549 | 12.22° C | 77% | 1001.4 hPa | 0 mm | - | - | - |
| 1777983247 | 14.44° C | 77% | 1001.2 hPa | 0 mm | - | - | - |
| 1777982947 | 14.44° C | 78% | 1001 hPa | 0 mm | - | - | - |
| 1777982649 | 14.44° C | 78% | 1001.2 hPa | 0 mm | - | - | - |
| 1777982348 | 14.44° C | 78% | 1001.1 hPa | 0 mm | - | - | - |
| 1777982048 | 14.44° C | 78% | 1000.7 hPa | 0 mm | - | - | - |
| 1777981747 | 14.44° C | 78% | 1000.7 hPa | 0 mm | - | - | - |
* Rain latest hour (hover to see other rain measurements)
** Current wind speed in m/s (hover to see current wind gust speed)